owner,sensor,date,latitude,longitude,vertical_datum,sea_water_temperature,qcFlag 
TCOON,ioos:station:TCOON:043:1,2017-09-01T00:30:00Z,27.8838,-97.5332,0.0,29.1,2 
TCOON,ioos:station:TCOON:043:1,2017-09-01T01:30:00Z,27.8838,-97.5332,0.0,27.7,2 
TCOON,ioos:station:TCOON:043:1,2017-09-01T02:30:00Z,27.8838,-97.5332,0.0,26.9,2 
TCOON,ioos:station:TCOON:043:1,2017-09-01T03:30:00Z,27.8838,-97.5332,0.0,27.0,2 
TCOON,ioos:station:TCOON:043:1,2017-09-01T04:30:00Z,27.8838,-97.5332,0.0,27.1,2 
TCOON,ioos:station:TCOON:043:1,2017-09-01T05:30:00Z,27.8838,-97.5332,0.0,27.0,2 
TCOON,ioos:station:TCOON:043:1,2017-09-01T06:30:00Z,27.8838,-97.5332,0.0,26.6,2 
TCOON,ioos:station:TCOON:043:1,2017-09-01T07:30:00Z,27.8838,-97.5332,0.0,26.4,2 
TCOON,ioos:station:TCOON:043:1,2017-09-01T08:30:00Z,27.8838,-97.5332,0.0,26.6,2 
TCOON,ioos:station:TCOON:043:1,2017-09-01T09:30:00Z,27.8838,-97.5332,0.0,26.4,2 
TCOON,ioos:station:TCOON:043:1,2017-09-01T10:30:00Z,27.8838,-97.5332,0.0,26.5,2 
TCOON,ioos:station:TCOON:043:1,2017-09-01T11:30:00Z,27.8838,-97.5332,0.0,26.3,2 
TCOON,ioos:station:TCOON:043:1,2017-09-01T12:30:00Z,27.8838,-97.5332,0.0,27.1,2 
TCOON,ioos:station:TCOON:043:1,2017-09-01T13:30:00Z,27.8838,-97.5332,0.0,27.6,2 
TCOON,ioos:station:TCOON:043:1,2017-09-01T14:30:00Z,27.8838,-97.5332,0.0,28.5,2 
TCOON,ioos:station:TCOON:043:1,2017-09-01T15:30:00Z,27.8838,-97.5332,0.0,29.1,2 
TCOON,ioos:station:TCOON:043:1,2017-09-01T17:30:00Z,27.8838,-97.5332,0.0,30.4,2 
TCOON,ioos:station:TCOON:043:1,2017-09-01T18:30:00Z,27.8838,-97.5332,0.0,31.6,2 
TCOON,ioos:station:TCOON:043:1,2017-09-01T19:30:00Z,27.8838,-97.5332,0.0,32.7,2 
TCOON,ioos:station:TCOON:043:1,2017-09-01T20:30:00Z,27.8838,-97.5332,0.0,33.1,2 
TCOON,ioos:station:TCOON:043:1,2017-09-01T21:30:00Z,27.8838,-97.5332,0.0,33.4,2 
TCOON,ioos:station:TCOON:043:1,2017-09-01T22:30:00Z,27.8838,-97.5332,0.0,33.3,2 
TCOON,ioos:station:TCOON:043:1,2017-09-02T00:30:00Z,27.8838,-97.5332,0.0,32.1,2 
TCOON,ioos:station:TCOON:043:1,2017-09-02T01:30:00Z,27.8838,-97.5332,0.0,31.4,2 
TCOON,ioos:station:TCOON:043:1,2017-09-02T02:30:00Z,27.8838,-97.5332,0.0,31.2,2 
TCOON,ioos:station:TCOON:043:1,2017-09-02T03:30:00Z,27.8838,-97.5332,0.0,30.7,2 
TCOON,ioos:station:TCOON:043:1,2017-09-02T04:30:00Z,27.8838,-97.5332,0.0,30.5,2 
TCOON,ioos:station:TCOON:043:1,2017-09-02T05:30:00Z,27.8838,-97.5332,0.0,28.0,2 
TCOON,ioos:station:TCOON:043:1,2017-09-02T06:30:00Z,27.8838,-97.5332,0.0,28.2,2 
TCOON,ioos:station:TCOON:043:1,2017-09-02T07:30:00Z,27.8838,-97.5332,0.0,28.3,2 
TCOON,ioos:station:TCOON:043:1,2017-09-02T08:30:00Z,27.8838,-97.5332,0.0,28.0,2 
TCOON,ioos:station:TCOON:043:1,2017-09-02T09:30:00Z,27.8838,-97.5332,0.0,27.7,2 
TCOON,ioos:station:TCOON:043:1,2017-09-02T10:30:00Z,27.8838,-97.5332,0.0,27.5,2 
TCOON,ioos:station:TCOON:043:1,2017-09-02T11:30:00Z,27.8838,-97.5332,0.0,27.3,2 
TCOON,ioos:station:TCOON:043:1,2017-09-02T12:30:00Z,27.8838,-97.5332,0.0,27.0,2 
TCOON,ioos:station:TCOON:043:1,2017-09-02T13:30:00Z,27.8838,-97.5332,0.0,27.2,2 
TCOON,ioos:station:TCOON:043:1,2017-09-02T14:30:00Z,27.8838,-97.5332,0.0,27.8,2 
TCOON,ioos:station:TCOON:043:1,2017-09-02T15:30:00Z,27.8838,-97.5332,0.0,28.5,2 
TCOON,ioos:station:TCOON:043:1,2017-09-02T16:30:00Z,27.8838,-97.5332,0.0,28.9,2 
TCOON,ioos:station:TCOON:043:1,2017-09-02T17:30:00Z,27.8838,-97.5332,0.0,30.1,2 
TCOON,ioos:station:TCOON:043:1,2017-09-02T18:30:00Z,27.8838,-97.5332,0.0,31.0,2 
TCOON,ioos:station:TCOON:043:1,2017-09-02T19:30:00Z,27.8838,-97.5332,0.0,31.9,2 
TCOON,ioos:station:TCOON:043:1,2017-09-02T20:30:00Z,27.8838,-97.5332,0.0,32.4,2 
TCOON,ioos:station:TCOON:043:1,2017-09-02T21:30:00Z,27.8838,-97.5332,0.0,32.5,2 
TCOON,ioos:station:TCOON:043:1,2017-09-02T22:30:00Z,27.8838,-97.5332,0.0,32.3,2 
TCOON,ioos:station:TCOON:043:1,2017-09-02T23:30:00Z,27.8838,-97.5332,0.0,31.9,2 
TCOON,ioos:station:TCOON:043:1,2017-09-03T00:30:00Z,27.8838,-97.5332,0.0,31.4,2 
TCOON,ioos:station:TCOON:043:1,2017-09-03T01:30:00Z,27.8838,-97.5332,0.0,31.1,2 
TCOON,ioos:station:TCOON:043:1,2017-09-03T02:30:00Z,27.8838,-97.5332,0.0,30.7,2 
TCOON,ioos:station:TCOON:043:1,2017-09-03T03:30:00Z,27.8838,-97.5332,0.0,30.3,2 
TCOON,ioos:station:TCOON:043:1,2017-09-03T04:30:00Z,27.8838,-97.5332,0.0,30.0,2 
TCOON,ioos:station:TCOON:043:1,2017-09-03T05:30:00Z,27.8838,-97.5332,0.0,29.2,2 
TCOON,ioos:station:TCOON:043:1,2017-09-03T06:30:00Z,27.8838,-97.5332,0.0,27.4,2 
TCOON,ioos:station:TCOON:043:1,2017-09-03T07:30:00Z,27.8838,-97.5332,0.0,27.5,2 
TCOON,ioos:station:TCOON:043:1,2017-09-03T08:30:00Z,27.8838,-97.5332,0.0,27.5,2 
TCOON,ioos:station:TCOON:043:1,2017-09-03T09:30:00Z,27.8838,-97.5332,0.0,27.2,2 
TCOON,ioos:station:TCOON:043:1,2017-09-03T10:30:00Z,27.8838,-97.5332,0.0,27.0,2 
TCOON,ioos:station:TCOON:043:1,2017-09-03T11:30:00Z,27.8838,-97.5332,0.0,26.9,2 
TCOON,ioos:station:TCOON:043:1,2017-09-03T12:30:00Z,27.8838,-97.5332,0.0,26.6,2 
TCOON,ioos:station:TCOON:043:1,2017-09-03T13:30:00Z,27.8838,-97.5332,0.0,26.8,2 
TCOON,ioos:station:TCOON:043:1,2017-09-03T14:30:00Z,27.8838,-97.5332,0.0,27.0,2 
TCOON,ioos:station:TCOON:043:1,2017-09-03T15:30:00Z,27.8838,-97.5332,0.0,27.5,2 
TCOON,ioos:station:TCOON:043:1,2017-09-03T16:30:00Z,27.8838,-97.5332,0.0,27.9,2 
TCOON,ioos:station:TCOON:043:1,2017-09-03T17:30:00Z,27.8838,-97.5332,0.0,28.9,2 
TCOON,ioos:station:TCOON:043:1,2017-09-03T18:30:00Z,27.8838,-97.5332,0.0,29.5,2 
TCOON,ioos:station:TCOON:043:1,2017-09-03T19:30:00Z,27.8838,-97.5332,0.0,30.5,2 
TCOON,ioos:station:TCOON:043:1,2017-09-03T20:30:00Z,27.8838,-97.5332,0.0,31.2,2 
TCOON,ioos:station:TCOON:043:1,2017-09-03T21:30:00Z,27.8838,-97.5332,0.0,31.6,2 
TCOON,ioos:station:TCOON:043:1,2017-09-03T22:30:00Z,27.8838,-97.5332,0.0,31.6,2 
TCOON,ioos:station:TCOON:043:1,2017-09-03T23:30:00Z,27.8838,-97.5332,0.0,31.1,2 
TCOON,ioos:station:TCOON:043:1,2017-09-04T00:30:00Z,27.8838,-97.5332,0.0,30.8,2 
TCOON,ioos:station:TCOON:043:1,2017-09-04T01:30:00Z,27.8838,-97.5332,0.0,30.5,2 
TCOON,ioos:station:TCOON:043:1,2017-09-04T02:30:00Z,27.8838,-97.5332,0.0,30.1,2 
TCOON,ioos:station:TCOON:043:1,2017-09-04T03:30:00Z,27.8838,-97.5332,0.0,30.0,2 
TCOON,ioos:station:TCOON:043:1,2017-09-04T04:30:00Z,27.8838,-97.5332,0.0,29.6,2 
TCOON,ioos:station:TCOON:043:1,2017-09-04T05:30:00Z,27.8838,-97.5332,0.0,29.3,2 
TCOON,ioos:station:TCOON:043:1,2017-09-04T06:30:00Z,27.8838,-97.5332,0.0,28.0,2 
TCOON,ioos:station:TCOON:043:1,2017-09-07T15:00:00Z,27.8838,-97.5332,0.0,23.6,2 
TCOON,ioos:station:TCOON:043:1,2017-09-07T15:30:00Z,27.8838,-97.5332,0.0,23.9,2 
TCOON,ioos:station:TCOON:043:1,2017-09-07T16:30:00Z,27.8838,-97.5332,0.0,24.4,2 
TCOON,ioos:station:TCOON:043:1,2017-09-07T17:30:00Z,27.8838,-97.5332,0.0,25.1,2 
TCOON,ioos:station:TCOON:043:1,2017-09-07T18:30:00Z,27.8838,-97.5332,0.0,25.9,2 
TCOON,ioos:station:TCOON:043:1,2017-09-07T19:30:00Z,27.8838,-97.5332,0.0,27.2,2 
TCOON,ioos:station:TCOON:043:1,2017-09-07T20:30:00Z,27.8838,-97.5332,0.0,28.1,2 
TCOON,ioos:station:TCOON:043:1,2017-09-07T21:30:00Z,27.8838,-97.5332,0.0,28.6,2 
TCOON,ioos:station:TCOON:043:1,2017-09-07T22:30:00Z,27.8838,-97.5332,0.0,28.8,2 
TCOON,ioos:station:TCOON:043:1,2017-09-07T23:30:00Z,27.8838,-97.5332,0.0,28.5,2 
TCOON,ioos:station:TCOON:043:1,2017-09-08T00:30:00Z,27.8838,-97.5332,0.0,28.0,2 
TCOON,ioos:station:TCOON:043:1,2017-09-08T01:30:00Z,27.8838,-97.5332,0.0,27.6,2 
TCOON,ioos:station:TCOON:043:1,2017-09-08T02:30:00Z,27.8838,-97.5332,0.0,27.2,2 
TCOON,ioos:station:TCOON:043:1,2017-09-08T03:30:00Z,27.8838,-97.5332,0.0,26.8,2 
TCOON,ioos:station:TCOON:043:1,2017-09-08T04:30:00Z,27.8838,-97.5332,0.0,26.5,2 
TCOON,ioos:station:TCOON:043:1,2017-09-08T05:30:00Z,27.8838,-97.5332,0.0,26.2,2 
TCOON,ioos:station:TCOON:043:1,2017-09-08T06:30:00Z,27.8838,-97.5332,0.0,26.0,2 
TCOON,ioos:station:TCOON:043:1,2017-09-08T07:30:00Z,27.8838,-97.5332,0.0,25.8,2 
TCOON,ioos:station:TCOON:043:1,2017-09-08T08:30:00Z,27.8838,-97.5332,0.0,25.5,2 
TCOON,ioos:station:TCOON:043:1,2017-09-08T09:30:00Z,27.8838,-97.5332,0.0,25.2,2 
TCOON,ioos:station:TCOON:043:1,2017-09-08T10:30:00Z,27.8838,-97.5332,0.0,24.2,2 
TCOON,ioos:station:TCOON:043:1,2017-09-08T11:30:00Z,27.8838,-97.5332,0.0,23.8,2 
TCOON,ioos:station:TCOON:043:1,2017-09-08T12:30:00Z,27.8838,-97.5332,0.0,23.5,2 
TCOON,ioos:station:TCOON:043:1,2017-09-08T13:30:00Z,27.8838,-97.5332,0.0,23.6,2 
TCOON,ioos:station:TCOON:043:1,2017-09-08T14:30:00Z,27.8838,-97.5332,0.0,24.3,2 
TCOON,ioos:station:TCOON:043:1,2017-09-08T15:30:00Z,27.8838,-97.5332,0.0,24.2,2 
TCOON,ioos:station:TCOON:043:1,2017-09-08T16:30:00Z,27.8838,-97.5332,0.0,24.6,2 
TCOON,ioos:station:TCOON:043:1,2017-09-08T17:30:00Z,27.8838,-97.5332,0.0,25.3,2 
TCOON,ioos:station:TCOON:043:1,2017-09-08T18:30:00Z,27.8838,-97.5332,0.0,25.9,2 
TCOON,ioos:station:TCOON:043:1,2017-09-08T19:30:00Z,27.8838,-97.5332,0.0,26.2,2 
TCOON,ioos:station:TCOON:043:1,2017-09-08T20:30:00Z,27.8838,-97.5332,0.0,26.3,2 
TCOON,ioos:station:TCOON:043:1,2017-09-08T21:30:00Z,27.8838,-97.5332,0.0,26.7,2 
TCOON,ioos:station:TCOON:043:1,2017-09-08T22:30:00Z,27.8838,-97.5332,0.0,27.0,2 
TCOON,ioos:station:TCOON:043:1,2017-09-08T23:30:00Z,27.8838,-97.5332,0.0,27.1,2 
TCOON,ioos:station:TCOON:043:1,2017-09-09T00:30:00Z,27.8838,-97.5332,0.0,26.8,2 
TCOON,ioos:station:TCOON:043:1,2017-09-09T01:30:00Z,27.8838,-97.5332,0.0,26.6,2 
TCOON,ioos:station:TCOON:043:1,2017-09-09T02:30:00Z,27.8838,-97.5332,0.0,26.4,2 
TCOON,ioos:station:TCOON:043:1,2017-09-09T03:30:00Z,27.8838,-97.5332,0.0,26.2,2 
TCOON,ioos:station:TCOON:043:1,2017-09-09T04:30:00Z,27.8838,-97.5332,0.0,26.0,2 
TCOON,ioos:station:TCOON:043:1,2017-09-09T05:30:00Z,27.8838,-97.5332,0.0,25.8,2 
TCOON,ioos:station:TCOON:043:1,2017-09-09T06:30:00Z,27.8838,-97.5332,0.0,25.6,2 
TCOON,ioos:station:TCOON:043:1,2017-09-09T07:30:00Z,27.8838,-97.5332,0.0,25.5,2 
TCOON,ioos:station:TCOON:043:1,2017-09-09T08:30:00Z,27.8838,-97.5332,0.0,25.3,2 
TCOON,ioos:station:TCOON:043:1,2017-09-09T09:30:00Z,27.8838,-97.5332,0.0,25.1,2 
TCOON,ioos:station:TCOON:043:1,2017-09-09T10:30:00Z,27.8838,-97.5332,0.0,25.0,2 
TCOON,ioos:station:TCOON:043:1,2017-09-09T11:30:00Z,27.8838,-97.5332,0.0,24.8,2 
TCOON,ioos:station:TCOON:043:1,2017-09-09T12:30:00Z,27.8838,-97.5332,0.0,24.4,2 
TCOON,ioos:station:TCOON:043:1,2017-09-13T23:30:00Z,27.8838,-97.5332,0.0,29.1,2 
TCOON,ioos:station:TCOON:043:1,2017-09-14T00:30:00Z,27.8838,-97.5332,0.0,29.0,2 
TCOON,ioos:station:TCOON:043:1,2017-09-14T01:30:00Z,27.8838,-97.5332,0.0,29.1,2 
TCOON,ioos:station:TCOON:043:1,2017-09-14T02:30:00Z,27.8838,-97.5332,0.0,29.1,2 
TCOON,ioos:station:TCOON:043:1,2017-09-14T03:30:00Z,27.8838,-97.5332,0.0,28.4,2 
TCOON,ioos:station:TCOON:043:1,2017-09-14T04:30:00Z,27.8838,-97.5332,0.0,28.0,2 
TCOON,ioos:station:TCOON:043:1,2017-09-14T05:30:00Z,27.8838,-97.5332,0.0,27.5,2 
TCOON,ioos:station:TCOON:043:1,2017-09-14T06:30:00Z,27.8838,-97.5332,0.0,27.2,2 
TCOON,ioos:station:TCOON:043:1,2017-09-14T07:30:00Z,27.8838,-97.5332,0.0,26.9,2 
TCOON,ioos:station:TCOON:043:1,2017-09-14T08:30:00Z,27.8838,-97.5332,0.0,26.8,2 
TCOON,ioos:station:TCOON:043:1,2017-09-14T09:30:00Z,27.8838,-97.5332,0.0,26.6,2 
TCOON,ioos:station:TCOON:043:1,2017-09-14T10:30:00Z,27.8838,-97.5332,0.0,26.4,2 
TCOON,ioos:station:TCOON:043:1,2017-09-14T11:30:00Z,27.8838,-97.5332,0.0,26.3,2 
TCOON,ioos:station:TCOON:043:1,2017-09-14T12:30:00Z,27.8838,-97.5332,0.0,26.3,2 
TCOON,ioos:station:TCOON:043:1,2017-09-14T13:30:00Z,27.8838,-97.5332,0.0,26.3,2 
TCOON,ioos:station:TCOON:043:1,2017-09-14T14:30:00Z,27.8838,-97.5332,0.0,26.5,2 
TCOON,ioos:station:TCOON:043:1,2017-09-14T15:30:00Z,27.8838,-97.5332,0.0,27.0,2 
TCOON,ioos:station:TCOON:043:1,2017-09-14T16:30:00Z,27.8838,-97.5332,0.0,27.7,2 
TCOON,ioos:station:TCOON:043:1,2017-09-14T17:30:00Z,27.8838,-97.5332,0.0,28.2,2 
TCOON,ioos:station:TCOON:043:1,2017-09-14T18:30:00Z,27.8838,-97.5332,0.0,28.8,2 
TCOON,ioos:station:TCOON:043:1,2017-09-14T19:30:00Z,27.8838,-97.5332,0.0,29.0,2 
TCOON,ioos:station:TCOON:043:1,2017-09-14T21:30:00Z,27.8838,-97.5332,0.0,29.9,2 
TCOON,ioos:station:TCOON:043:1,2017-09-14T22:30:00Z,27.8838,-97.5332,0.0,30.0,2 
TCOON,ioos:station:TCOON:043:1,2017-09-14T23:30:00Z,27.8838,-97.5332,0.0,30.0,2 
TCOON,ioos:station:TCOON:043:1,2017-09-15T00:30:00Z,27.8838,-97.5332,0.0,29.8,2 
TCOON,ioos:station:TCOON:043:1,2017-09-15T01:30:00Z,27.8838,-97.5332,0.0,29.3,2 
TCOON,ioos:station:TCOON:043:1,2017-09-15T02:30:00Z,27.8838,-97.5332,0.0,28.6,2 
TCOON,ioos:station:TCOON:043:1,2017-09-15T03:30:00Z,27.8838,-97.5332,0.0,28.3,2 
TCOON,ioos:station:TCOON:043:1,2017-09-15T04:30:00Z,27.8838,-97.5332,0.0,28.0,2 
TCOON,ioos:station:TCOON:043:1,2017-09-15T05:30:00Z,27.8838,-97.5332,0.0,27.3,2 
TCOON,ioos:station:TCOON:043:1,2017-09-15T06:30:00Z,27.8838,-97.5332,0.0,26.8,2 
TCOON,ioos:station:TCOON:043:1,2017-09-15T07:30:00Z,27.8838,-97.5332,0.0,26.4,2 
TCOON,ioos:station:TCOON:043:1,2017-09-15T08:30:00Z,27.8838,-97.5332,0.0,26.1,2 
TCOON,ioos:station:TCOON:043:1,2017-09-15T09:30:00Z,27.8838,-97.5332,0.0,25.8,2 
TCOON,ioos:station:TCOON:043:1,2017-09-15T10:30:00Z,27.8838,-97.5332,0.0,25.6,2 
TCOON,ioos:station:TCOON:043:1,2017-09-15T11:30:00Z,27.8838,-97.5332,0.0,25.7,2 
TCOON,ioos:station:TCOON:043:1,2017-09-15T12:30:00Z,27.8838,-97.5332,0.0,25.8,2 
TCOON,ioos:station:TCOON:043:1,2017-09-15T13:30:00Z,27.8838,-97.5332,0.0,25.9,2 
TCOON,ioos:station:TCOON:043:1,2017-09-15T14:30:00Z,27.8838,-97.5332,0.0,26.0,2 
TCOON,ioos:station:TCOON:043:1,2017-09-15T15:30:00Z,27.8838,-97.5332,0.0,26.3,2 
TCOON,ioos:station:TCOON:043:1,2017-09-15T16:30:00Z,27.8838,-97.5332,0.0,26.9,2 
TCOON,ioos:station:TCOON:043:1,2017-09-15T17:30:00Z,27.8838,-97.5332,0.0,27.5,2 
TCOON,ioos:station:TCOON:043:1,2017-09-15T18:30:00Z,27.8838,-97.5332,0.0,28.5,2 
TCOON,ioos:station:TCOON:043:1,2017-09-15T19:30:00Z,27.8838,-97.5332,0.0,29.3,2 
TCOON,ioos:station:TCOON:043:1,2017-09-15T20:30:00Z,27.8838,-97.5332,0.0,29.9,2 
TCOON,ioos:station:TCOON:043:1,2017-09-15T21:30:00Z,27.8838,-97.5332,0.0,30.3,2 
TCOON,ioos:station:TCOON:043:1,2017-09-15T22:30:00Z,27.8838,-97.5332,0.0,30.4,2 
TCOON,ioos:station:TCOON:043:1,2017-09-15T23:30:00Z,27.8838,-97.5332,0.0,30.3,2 
TCOON,ioos:station:TCOON:043:1,2017-09-16T00:30:00Z,27.8838,-97.5332,0.0,30.1,2 
TCOON,ioos:station:TCOON:043:1,2017-09-16T01:30:00Z,27.8838,-97.5332,0.0,29.7,2 
TCOON,ioos:station:TCOON:043:1,2017-09-16T02:30:00Z,27.8838,-97.5332,0.0,29.2,2 
TCOON,ioos:station:TCOON:043:1,2017-09-16T03:30:00Z,27.8838,-97.5332,0.0,28.9,2 
TCOON,ioos:station:TCOON:043:1,2017-09-16T04:30:00Z,27.8838,-97.5332,0.0,28.1,2 
TCOON,ioos:station:TCOON:043:1,2017-09-16T05:30:00Z,27.8838,-97.5332,0.0,27.6,2 
TCOON,ioos:station:TCOON:043:1,2017-09-16T06:30:00Z,27.8838,-97.5332,0.0,27.4,2 
TCOON,ioos:station:TCOON:043:1,2017-09-16T07:30:00Z,27.8838,-97.5332,0.0,27.1,2 
TCOON,ioos:station:TCOON:043:1,2017-09-16T08:30:00Z,27.8838,-97.5332,0.0,26.8,2 
TCOON,ioos:station:TCOON:043:1,2017-09-16T09:30:00Z,27.8838,-97.5332,0.0,26.6,2 
TCOON,ioos:station:TCOON:043:1,2017-09-16T10:30:00Z,27.8838,-97.5332,0.0,26.4,2 
TCOON,ioos:station:TCOON:043:1,2017-09-16T11:30:00Z,27.8838,-97.5332,0.0,26.4,2 
TCOON,ioos:station:TCOON:043:1,2017-09-16T12:30:00Z,27.8838,-97.5332,0.0,26.5,2 
TCOON,ioos:station:TCOON:043:1,2017-09-16T13:30:00Z,27.8838,-97.5332,0.0,26.6,2 
TCOON,ioos:station:TCOON:043:1,2017-09-16T14:30:00Z,27.8838,-97.5332,0.0,26.7,2 
TCOON,ioos:station:TCOON:043:1,2017-09-16T15:30:00Z,27.8838,-97.5332,0.0,27.2,2 
TCOON,ioos:station:TCOON:043:1,2017-09-16T16:30:00Z,27.8838,-97.5332,0.0,27.8,2 
TCOON,ioos:station:TCOON:043:1,2017-09-16T17:30:00Z,27.8838,-97.5332,0.0,28.5,2 
TCOON,ioos:station:TCOON:043:1,2017-09-16T18:30:00Z,27.8838,-97.5332,0.0,29.3,2 
TCOON,ioos:station:TCOON:043:1,2017-09-16T19:30:00Z,27.8838,-97.5332,0.0,30.2,2 
TCOON,ioos:station:TCOON:043:1,2017-09-16T20:30:00Z,27.8838,-97.5332,0.0,30.8,2 
TCOON,ioos:station:TCOON:043:1,2017-09-16T21:30:00Z,27.8838,-97.5332,0.0,31.1,2 
TCOON,ioos:station:TCOON:043:1,2017-09-16T22:30:00Z,27.8838,-97.5332,0.0,31.2,2 
TCOON,ioos:station:TCOON:043:1,2017-09-16T23:30:00Z,27.8838,-97.5332,0.0,31.2,2 
TCOON,ioos:station:TCOON:043:1,2017-09-17T00:30:00Z,27.8838,-97.5332,0.0,30.9,2 
TCOON,ioos:station:TCOON:043:1,2017-09-17T01:30:00Z,27.8838,-97.5332,0.0,30.4,2 
TCOON,ioos:station:TCOON:043:1,2017-09-17T02:30:00Z,27.8838,-97.5332,0.0,30.2,2 
TCOON,ioos:station:TCOON:043:1,2017-09-17T03:30:00Z,27.8838,-97.5332,0.0,29.8,2 
TCOON,ioos:station:TCOON:043:1,2017-09-17T04:30:00Z,27.8838,-97.5332,0.0,28.8,2 
TCOON,ioos:station:TCOON:043:1,2017-09-17T05:30:00Z,27.8838,-97.5332,0.0,28.3,2 
TCOON,ioos:station:TCOON:043:1,2017-09-17T06:30:00Z,27.8838,-97.5332,0.0,28.1,2 
TCOON,ioos:station:TCOON:043:1,2017-09-17T07:30:00Z,27.8838,-97.5332,0.0,27.8,2 
TCOON,ioos:station:TCOON:043:1,2017-09-17T08:30:00Z,27.8838,-97.5332,0.0,27.6,2 
TCOON,ioos:station:TCOON:043:1,2017-09-17T09:30:00Z,27.8838,-97.5332,0.0,27.4,2 
TCOON,ioos:station:TCOON:043:1,2017-09-17T10:30:00Z,27.8838,-97.5332,0.0,27.2,2 
TCOON,ioos:station:TCOON:043:1,2017-09-17T11:30:00Z,27.8838,-97.5332,0.0,27.1,2 
TCOON,ioos:station:TCOON:043:1,2017-09-17T12:30:00Z,27.8838,-97.5332,0.0,27.0,2 
TCOON,ioos:station:TCOON:043:1,2017-09-17T13:30:00Z,27.8838,-97.5332,0.0,27.1,2 
TCOON,ioos:station:TCOON:043:1,2017-09-17T14:30:00Z,27.8838,-97.5332,0.0,27.3,2 
TCOON,ioos:station:TCOON:043:1,2017-09-17T15:30:00Z,27.8838,-97.5332,0.0,27.5,2 
TCOON,ioos:station:TCOON:043:1,2017-09-17T16:30:00Z,27.8838,-97.5332,0.0,27.8,2 
TCOON,ioos:station:TCOON:043:1,2017-09-17T17:30:00Z,27.8838,-97.5332,0.0,28.2,2 
TCOON,ioos:station:TCOON:043:1,2017-09-17T18:30:00Z,27.8838,-97.5332,0.0,29.8,2 
TCOON,ioos:station:TCOON:043:1,2017-09-17T19:30:00Z,27.8838,-97.5332,0.0,30.7,2 
TCOON,ioos:station:TCOON:043:1,2017-09-17T20:30:00Z,27.8838,-97.5332,0.0,31.8,2 
TCOON,ioos:station:TCOON:043:1,2017-09-17T21:30:00Z,27.8838,-97.5332,0.0,31.9,2 
TCOON,ioos:station:TCOON:043:1,2017-09-17T22:30:00Z,27.8838,-97.5332,0.0,32.0,2 
TCOON,ioos:station:TCOON:043:1,2017-09-19T08:00:00Z,27.8838,-97.5332,0.0,28.2,2 
TCOON,ioos:station:TCOON:043:1,2017-09-19T08:30:00Z,27.8838,-97.5332,0.0,28.1,2 
TCOON,ioos:station:TCOON:043:1,2017-09-19T09:30:00Z,27.8838,-97.5332,0.0,27.8,2 
TCOON,ioos:station:TCOON:043:1,2017-09-19T10:30:00Z,27.8838,-97.5332,0.0,27.7,2 
TCOON,ioos:station:TCOON:043:1,2017-09-19T11:30:00Z,27.8838,-97.5332,0.0,27.4,2 
TCOON,ioos:station:TCOON:043:1,2017-09-19T12:30:00Z,27.8838,-97.5332,0.0,27.3,2 
TCOON,ioos:station:TCOON:043:1,2017-09-19T13:30:00Z,27.8838,-97.5332,0.0,27.3,2 
TCOON,ioos:station:TCOON:043:1,2017-09-19T14:30:00Z,27.8838,-97.5332,0.0,27.5,2 
TCOON,ioos:station:TCOON:043:1,2017-09-19T15:30:00Z,27.8838,-97.5332,0.0,27.9,2 
TCOON,ioos:station:TCOON:043:1,2017-09-19T16:30:00Z,27.8838,-97.5332,0.0,28.4,2 
TCOON,ioos:station:TCOON:043:1,2017-09-19T17:30:00Z,27.8838,-97.5332,0.0,29.0,2 
TCOON,ioos:station:TCOON:043:1,2017-09-19T18:30:00Z,27.8838,-97.5332,0.0,29.9,2 
TCOON,ioos:station:TCOON:043:1,2017-09-19T19:30:00Z,27.8838,-97.5332,0.0,30.5,2 
TCOON,ioos:station:TCOON:043:1,2017-09-19T20:30:00Z,27.8838,-97.5332,0.0,31.1,2 
TCOON,ioos:station:TCOON:043:1,2017-09-19T21:30:00Z,27.8838,-97.5332,0.0,32.0,2 
TCOON,ioos:station:TCOON:043:1,2017-09-19T22:30:00Z,27.8838,-97.5332,0.0,31.5,2 
TCOON,ioos:station:TCOON:043:1,2017-09-19T23:30:00Z,27.8838,-97.5332,0.0,31.1,2 
TCOON,ioos:station:TCOON:043:1,2017-09-20T00:30:00Z,27.8838,-97.5332,0.0,30.6,2 
TCOON,ioos:station:TCOON:043:1,2017-09-20T01:30:00Z,27.8838,-97.5332,0.0,30.4,2 
TCOON,ioos:station:TCOON:043:1,2017-09-20T02:30:00Z,27.8838,-97.5332,0.0,30.0,2 
TCOON,ioos:station:TCOON:043:1,2017-09-20T03:30:00Z,27.8838,-97.5332,0.0,29.7,2 
TCOON,ioos:station:TCOON:043:1,2017-09-20T04:30:00Z,27.8838,-97.5332,0.0,29.3,2 
TCOON,ioos:station:TCOON:043:1,2017-09-20T05:30:00Z,27.8838,-97.5332,0.0,29.1,2 
TCOON,ioos:station:TCOON:043:1,2017-09-20T06:30:00Z,27.8838,-97.5332,0.0,28.8,2 
TCOON,ioos:station:TCOON:043:1,2017-09-20T07:30:00Z,27.8838,-97.5332,0.0,28.8,2 
TCOON,ioos:station:TCOON:043:1,2017-09-20T08:30:00Z,27.8838,-97.5332,0.0,28.7,2 
TCOON,ioos:station:TCOON:043:1,2017-09-20T09:30:00Z,27.8838,-97.5332,0.0,28.1,2 
TCOON,ioos:station:TCOON:043:1,2017-09-20T10:30:00Z,27.8838,-97.5332,0.0,27.9,2 
TCOON,ioos:station:TCOON:043:1,2017-09-20T11:30:00Z,27.8838,-97.5332,0.0,27.7,2 
TCOON,ioos:station:TCOON:043:1,2017-09-20T12:30:00Z,27.8838,-97.5332,0.0,27.6,2 
TCOON,ioos:station:TCOON:043:1,2017-09-20T13:30:00Z,27.8838,-97.5332,0.0,27.5,2 
TCOON,ioos:station:TCOON:043:1,2017-09-20T14:30:00Z,27.8838,-97.5332,0.0,27.6,2 
TCOON,ioos:station:TCOON:043:1,2017-09-20T15:30:00Z,27.8838,-97.5332,0.0,28.2,2 
TCOON,ioos:station:TCOON:043:1,2017-09-20T16:30:00Z,27.8838,-97.5332,0.0,28.7,2 
TCOON,ioos:station:TCOON:043:1,2017-09-20T17:30:00Z,27.8838,-97.5332,0.0,29.3,2 
TCOON,ioos:station:TCOON:043:1,2017-09-20T18:30:00Z,27.8838,-97.5332,0.0,30.1,2 
TCOON,ioos:station:TCOON:043:1,2017-09-20T19:30:00Z,27.8838,-97.5332,0.0,30.4,2 
TCOON,ioos:station:TCOON:043:1,2017-09-20T20:30:00Z,27.8838,-97.5332,0.0,30.2,2 
TCOON,ioos:station:TCOON:043:1,2017-09-20T21:30:00Z,27.8838,-97.5332,0.0,30.9,2 
TCOON,ioos:station:TCOON:043:1,2017-09-20T22:30:00Z,27.8838,-97.5332,0.0,31.1,2 
TCOON,ioos:station:TCOON:043:1,2017-09-20T23:30:00Z,27.8838,-97.5332,0.0,31.9,2 
TCOON,ioos:station:TCOON:043:1,2017-09-21T00:30:00Z,27.8838,-97.5332,0.0,32.0,2 
TCOON,ioos:station:TCOON:043:1,2017-09-21T01:30:00Z,27.8838,-97.5332,0.0,31.4,2 
TCOON,ioos:station:TCOON:043:1,2017-09-21T02:30:00Z,27.8838,-97.5332,0.0,30.8,2 
TCOON,ioos:station:TCOON:043:1,2017-09-21T03:30:00Z,27.8838,-97.5332,0.0,30.3,2 
TCOON,ioos:station:TCOON:043:1,2017-09-21T04:30:00Z,27.8838,-97.5332,0.0,29.9,2 
TCOON,ioos:station:TCOON:043:1,2017-09-21T05:30:00Z,27.8838,-97.5332,0.0,29.6,2 
TCOON,ioos:station:TCOON:043:1,2017-09-21T06:30:00Z,27.8838,-97.5332,0.0,29.4,2 
TCOON,ioos:station:TCOON:043:1,2017-09-21T07:30:00Z,27.8838,-97.5332,0.0,29.4,2 
TCOON,ioos:station:TCOON:043:1,2017-09-21T08:30:00Z,27.8838,-97.5332,0.0,29.3,2 
TCOON,ioos:station:TCOON:043:1,2017-09-21T09:30:00Z,27.8838,-97.5332,0.0,28.7,2 
TCOON,ioos:station:TCOON:043:1,2017-09-21T10:30:00Z,27.8838,-97.5332,0.0,28.4,2 
TCOON,ioos:station:TCOON:043:1,2017-09-21T11:30:00Z,27.8838,-97.5332,0.0,28.3,2 
TCOON,ioos:station:TCOON:043:1,2017-09-21T12:30:00Z,27.8838,-97.5332,0.0,28.1,2 
TCOON,ioos:station:TCOON:043:1,2017-09-21T13:30:00Z,27.8838,-97.5332,0.0,28.0,2 
TCOON,ioos:station:TCOON:043:1,2017-09-21T14:30:00Z,27.8838,-97.5332,0.0,28.1,2 
TCOON,ioos:station:TCOON:043:1,2017-09-21T15:30:00Z,27.8838,-97.5332,0.0,28.4,2 
TCOON,ioos:station:TCOON:043:1,2017-09-21T16:30:00Z,27.8838,-97.5332,0.0,28.7,2 
TCOON,ioos:station:TCOON:043:1,2017-09-21T17:30:00Z,27.8838,-97.5332,0.0,29.4,2 
TCOON,ioos:station:TCOON:043:1,2017-09-21T18:30:00Z,27.8838,-97.5332,0.0,29.8,2 
TCOON,ioos:station:TCOON:043:1,2017-09-21T19:30:00Z,27.8838,-97.5332,0.0,30.3,2 
TCOON,ioos:station:TCOON:043:1,2017-09-21T20:30:00Z,27.8838,-97.5332,0.0,30.5,2 
TCOON,ioos:station:TCOON:043:1,2017-09-21T21:30:00Z,27.8838,-97.5332,0.0,30.5,2 
TCOON,ioos:station:TCOON:043:1,2017-09-21T22:30:00Z,27.8838,-97.5332,0.0,30.3,2 
TCOON,ioos:station:TCOON:043:1,2017-09-21T23:30:00Z,27.8838,-97.5332,0.0,30.4,2 
TCOON,ioos:station:TCOON:043:1,2017-09-22T00:30:00Z,27.8838,-97.5332,0.0,30.9,2 
TCOON,ioos:station:TCOON:043:1,2017-09-22T01:30:00Z,27.8838,-97.5332,0.0,30.4,2 
TCOON,ioos:station:TCOON:043:1,2017-09-22T02:30:00Z,27.8838,-97.5332,0.0,30.0,2 
TCOON,ioos:station:TCOON:043:1,2017-09-22T03:30:00Z,27.8838,-97.5332,0.0,29.7,2 
TCOON,ioos:station:TCOON:043:1,2017-09-23T07:30:00Z,27.8838,-97.5332,0.0,27.9,2 
TCOON,ioos:station:TCOON:043:1,2017-09-23T08:30:00Z,27.8838,-97.5332,0.0,27.7,2 
TCOON,ioos:station:TCOON:043:1,2017-09-23T09:30:00Z,27.8838,-97.5332,0.0,27.5,2 
TCOON,ioos:station:TCOON:043:1,2017-09-23T10:30:00Z,27.8838,-97.5332,0.0,27.3,2 
TCOON,ioos:station:TCOON:043:1,2017-09-23T11:30:00Z,27.8838,-97.5332,0.0,27.2,2 
TCOON,ioos:station:TCOON:043:1,2017-09-23T12:30:00Z,27.8838,-97.5332,0.0,27.2,2 
TCOON,ioos:station:TCOON:043:1,2017-09-23T13:30:00Z,27.8838,-97.5332,0.0,27.2,2 